Terminal Aerodrome Forecast
Issued by NWS Pittsburgh, PA

Current Version | Previous Version | Graphics & Text | Print | Product List | Glossary On
Versions: 1 2 3 4 5 6 7 8 9 10 11 12 13 14 15 16 17 18 19 20 21 22 23 24 25 26 27 28 29
000
FTUS41 KPBZ 210900 AAA
TAFPIT
TAF AMD
KPIT 210902Z 2109/2212 VRB03KT 4SM BR BKN050
     FM211300 17005KT P6SM SCT040=

USA.gov is the U.S. government's official web portal to all federal, state and local government web resources and services.